| time (UTC) | temp C | wind direction | speed KPH | gust KPH | rain 1hr cm | rain 24hr cm | rain mn cm | humidity % | barometer mb |
| 20260507140855 | 12 | 323 | 8.0 | 14.5 | 0.00 | 0.03 | 0.00 | 44 | 1013.1 |
| 20260507140355 | 12 | 316 | 9.7 | 14.5 | 0.00 | 0.03 | 0.00 | 44 | 1013.2 |
| 20260507135859 | 12 | 331 | 9.7 | 17.7 | 0.00 | 0.03 | 0.00 | 43 | 1013.3 |
| 20260507135358 | 12 | 22 | 9.7 | 17.7 | 0.00 | 0.41 | 0.00 | 43 | 1013.3 |
| 20260507134859 | 12 | 335 | 8.0 | 17.7 | 0.00 | 0.41 | 0.00 | 43 | 1013.4 |
| 20260507134357 | 12 | 323 | 4.8 | 12.9 | 0.00 | 0.41 | 0.00 | 50 | 1013.5 |
| 20260507133857 | 12 | 325 | 8.0 | 12.9 | 0.00 | 0.41 | 0.00 | 48 | 1013.6 |
| 20260507133357 | 12 | 321 | 8.0 | 12.9 | 0.00 | 0.41 | 0.00 | 45 | 1013.6 |
| 20260507132855 | 12 | 310 | 6.4 | 16.1 | 0.00 | 0.41 | 0.00 | 43 | 1013.6 |
| 20260507132357 | 12 | 319 | 4.8 | 12.9 | 0.00 | 0.41 | 0.00 | 46 | 1013.6 |
| 20260507131859 | 12 | 303 | 4.8 | 8.0 | 0.00 | 0.41 | 0.00 | 54 | 1013.5 |
| 20260507131356 | 11 | 330 | 8.0 | 12.9 | 0.00 | 0.41 | 0.00 | 50 | 1013.6 |
| 20260507130902 | 11 | 347 | 8.0 | 16.1 | 0.00 | 0.41 | 0.00 | 50 | 1013.6 |
| 20260507130355 | 11 | 336 | 6.4 | 14.5 | 0.00 | 0.41 | 0.00 | 51 | 1013.6 |
| 20260507125855 | 11 | 315 | 4.8 | 9.7 | 0.00 | 0.41 | 0.00 | 54 | 1013.5 |
| 20260507125357 | 11 | 26 | 4.8 | 14.5 | 0.00 | 0.53 | 0.00 | 47 | 1013.5 |
| 20260507124855 | 11 | 11 | 3.2 | 12.9 | 0.00 | 0.53 | 0.00 | 53 | 1013.4 |
| 20260507124355 | 11 | 294 | 3.2 | 6.4 | 0.00 | 0.53 | 0.00 | 55 | 1013.4 |
| 20260507123855 | 11 | 329 | 3.2 | 6.4 | 0.00 | 0.53 | 0.00 | 54 | 1013.3 |
| 20260507123513 | 11 | 321 | 3.2 | 6.4 | 0.00 | 0.53 | 0.00 | 52 | 1013.3 |
| 20260507123355 | 11 | 321 | 3.2 | 6.4 | 0.00 | 0.53 | 0.00 | 52 | 1013.3 |
| 20260507122855 | 11 | 337 | 1.6 | 4.8 | 0.00 | 0.53 | 0.00 | 54 | 1013.3 |
| 20260507122358 | 11 | 321 | 1.6 | 4.8 | 0.00 | 0.53 | 0.00 | 57 | 1013.3 |
| 20260507121856 | 11 | 338 | 1.6 | 4.8 | 0.00 | 0.53 | 0.00 | 55 | 1013.2 |
| 20260507121356 | 10 | 347 | 1.6 | 4.8 | 0.00 | 0.53 | 0.00 | 56 | 1013.3 |
| 20260507120855 | 10 | 341 | 1.6 | 4.8 | 0.00 | 0.53 | 0.00 | 53 | 1013.3 |
| 20260507120355 | 10 | 331 | 1.6 | 4.8 | 0.00 | 0.53 | 0.00 | 56 | 1013.3 |
| 20260507115855 | 10 | 341 | 1.6 | 4.8 | 0.00 | 0.53 | 0.00 | 55 | 1013.3 |
| 20260507115355 | 10 | 327 | 1.6 | 4.8 | 0.00 | 0.66 | 0.00 | 57 | 1013.3 |
| 20260507114855 | 10 | 299 | 1.6 | 3.2 | 0.00 | 0.66 | 0.00 | 56 | 1013.4 |
| 20260507114355 | 10 | 315 | 1.6 | 4.8 | 0.00 | 0.66 | 0.00 | 56 | 1013.4 |
| 20260507113857 | 10 | 319 | 1.6 | 6.4 | 0.00 | 0.66 | 0.00 | 57 | 1013.4 |
| 20260507113355 | 10 | 317 | 1.6 | 4.8 | 0.00 | 0.66 | 0.00 | 58 | 1013.4 |
| 20260507112856 | 10 | 305 | 1.6 | 4.8 | 0.00 | 0.66 | 0.00 | 59 | 1013.3 |
| 20260507112357 | 10 | 297 | 3.2 | 4.8 | 0.00 | 0.66 | 0.00 | 63 | 1013.3 |
| 20260507111857 | 10 | 304 | 1.6 | 4.8 | 0.00 | 0.66 | 0.00 | 61 | 1013.2 |
| 20260507111356 | 10 | 277 | 1.6 | 4.8 | 0.00 | 0.66 | 0.00 | 62 | 1013.1 |
| 20260507110856 | 10 | 295 | 0.0 | 1.6 | 0.00 | 0.66 | 0.00 | 63 | 1013.0 |
| 20260507110356 | 10 | 298 | 0.0 | 1.6 | 0.00 | 0.66 | 0.00 | 61 | 1012.8 |
| 20260507105856 | 10 | 319 | 0.0 | 1.6 | 0.00 | 0.66 | 0.00 | 61 | 1012.8 |
| 20260507105356 | 10 | 319 | 0.0 | 1.6 | 0.00 | 0.79 | 0.00 | 62 | 1012.9 |
| 20260507104856 | 10 | 331 | 0.0 | 1.6 | 0.00 | 0.79 | 0.00 | 60 | 1012.8 |
| 20260507104356 | 10 | 331 | 1.6 | 1.6 | 0.00 | 0.79 | 0.00 | 59 | 1012.7 |
| 20260507103856 | 10 | 331 | 0.0 | 3.2 | 0.00 | 0.79 | 0.00 | 61 | 1012.8 |
| 20260507103356 | 10 | 316 | 0.0 | 1.6 | 0.00 | 0.79 | 0.00 | 60 | 1012.8 |
| 20260507102856 | 10 | 309 | 1.6 | 3.2 | 0.00 | 0.79 | 0.00 | 59 | 1012.7 |
| 20260507102358 | 10 | 303 | 1.6 | 1.6 | 0.00 | 0.79 | 0.00 | 58 | 1012.4 |
| 20260507101927 | 10 | 306 | 3.2 | 6.4 | 0.00 | 0.79 | 0.00 | 58 | 1012.3 |
| 20260507101856 | 10 | 306 | 3.2 | 6.4 | 0.00 | 0.79 | 0.00 | 58 | 1012.3 |
| 20260507101356 | 10 | 321 | 1.6 | 8.0 | 0.00 | 0.79 | 0.00 | 57 | 1012.2 |
| 20260507100856 | 10 | 321 | 3.2 | 4.8 | 0.00 | 0.79 | 0.00 | 60 | 1012.1 |
| 20260507100356 | 10 | 319 | 1.6 | 9.7 | 0.00 | 0.79 | 0.00 | 61 | 1012.1 |
| 20260507095857 | 10 | 344 | 1.6 | 4.8 | 0.00 | 0.79 | 0.00 | 64 | 1012.0 |
| 20260507095356 | 10 | 325 | 1.6 | 3.2 | 0.00 | 0.79 | 0.00 | 64 | 1012.0 |
| 20260507095101 | 10 | 317 | 0.0 | 3.2 | 0.00 | 0.79 | 0.00 | 66 | 1012.1 |
| 20260507094942 | 10 | 317 | 0.0 | 3.2 | 0.00 | 0.79 | 0.00 | 66 | 1012.1 |
| 20260507094856 | 10 | 317 | 0.0 | 3.2 | 0.00 | 0.79 | 0.00 | 66 | 1012.1 |
| 20260507094356 | 10 | 319 | 0.0 | 1.6 | 0.00 | 0.79 | 0.00 | 65 | 1012.1 |
| 20260507093857 | 10 | 300 | 0.0 | 0.0 | 0.00 | 0.79 | 0.00 | 65 | 1012.1 |
| 20260507093538 | 10 | 300 | 0.0 | 1.6 | 0.00 | 0.79 | 0.00 | 64 | 1012.1 |
| 20260507093356 | 10 | 300 | 0.0 | 1.6 | 0.00 | 0.79 | 0.00 | 64 | 1012.1 |
| 20260507092932 | 10 | 315 | 0.0 | 0.0 | 0.00 | 0.79 | 0.00 | 62 | 1012.1 |
| 20260507092856 | 10 | 315 | 0.0 | 0.0 | 0.00 | 0.79 | 0.00 | 62 | 1012.1 |
| 20260507092357 | 10 | 315 | 0.0 | 0.0 | 0.00 | 0.79 | 0.00 | 63 | 1012.1 |
| 20260507091856 | 10 | 315 | 0.0 | 0.0 | 0.00 | 0.79 | 0.00 | 63 | 1012.0 |
| 20260507091356 | 10 | 332 | 1.6 | 3.2 | 0.00 | 0.79 | 0.00 | 62 | 1012.1 |
| 20260507090942 | 10 | 322 | 1.6 | 0.0 | 0.00 | 0.79 | 0.00 | 60 | 1011.9 |
| 20260507090856 | 10 | 322 | 1.6 | 0.0 | 0.00 | 0.79 | 0.00 | 60 | 1011.9 |
| 20260507090356 | 10 | 350 | 1.6 | 4.8 | 0.00 | 0.79 | 0.00 | 63 | 1011.8 |
| 20260507085856 | 10 | 342 | 1.6 | 6.4 | 0.00 | 0.79 | 0.00 | 63 | 1011.8 |
| 20260507085357 | 10 | 340 | 0.0 | 3.2 | 0.00 | 0.79 | 0.00 | 65 | 1011.7 |
| 20260507084857 | 10 | 347 | 1.6 | 3.2 | 0.00 | 0.79 | 0.00 | 65 | 1011.8 |
| 20260507084356 | 11 | 9 | 4.8 | 9.7 | 0.00 | 0.79 | 0.00 | 64 | 1011.7 |
| 20260507083856 | 11 | 321 | 3.2 | 8.0 | 0.00 | 0.79 | 0.00 | 62 | 1011.8 |
| 20260507083356 | 11 | 331 | 4.8 | 8.0 | 0.00 | 0.79 | 0.00 | 65 | 1011.8 |
| 20260507082856 | 11 | 349 | 4.8 | 16.1 | 0.00 | 0.79 | 0.00 | 66 | 1011.8 |
| 20260507082358 | 11 | 321 | 3.2 | 12.9 | 0.00 | 0.79 | 0.00 | 68 | 1011.7 |
| 20260507081856 | 11 | 336 | 1.6 | 4.8 | 0.00 | 0.79 | 0.00 | 69 | 1011.7 |
| 20260507081356 | 11 | 343 | 1.6 | 3.2 | 0.00 | 0.79 | 0.00 | 69 | 1011.6 |
| 20260507080856 | 11 | 26 | 3.2 | 6.4 | 0.00 | 0.79 | 0.00 | 70 | 1011.4 |
| 20260507080356 | 11 | 339 | 4.8 | 8.0 | 0.00 | 0.79 | 0.00 | 70 | 1011.3 |
| 20260507075856 | 11 | 5 | 3.2 | 8.0 | 0.00 | 0.79 | 0.00 | 72 | 1011.3 |
| 20260507075357 | 11 | 17 | 3.2 | 6.4 | 0.00 | 0.79 | 0.00 | 73 | 1011.3 |
| 20260507074856 | 11 | 344 | 3.2 | 8.0 | 0.00 | 0.79 | 0.00 | 73 | 1011.2 |
| 20260507074356 | 11 | 321 | 3.2 | 6.4 | 0.00 | 0.79 | 0.00 | 74 | 1011.4 |
| 20260507073857 | 11 | 326 | 1.6 | 8.0 | 0.00 | 0.79 | 0.00 | 73 | 1011.2 |
| 20260507073356 | 11 | 334 | 1.6 | 4.8 | 0.00 | 0.79 | 0.00 | 75 | 1011.3 |
| 20260507072856 | 11 | 346 | 1.6 | 4.8 | 0.00 | 0.79 | 0.00 | 74 | 1011.3 |
| 20260507072356 | 11 | 335 | 1.6 | 4.8 | 0.00 | 0.79 | 0.00 | 74 | 1011.5 |
| 20260507071856 | 11 | 334 | 3.2 | 8.0 | 0.00 | 0.79 | 0.00 | 74 | 1011.4 |
| 20260507071430 | 11 | 314 | 3.2 | 6.4 | 0.00 | 0.79 | 0.00 | 74 | 1011.5 |
| 20260507071356 | 11 | 314 | 3.2 | 6.4 | 0.00 | 0.79 | 0.00 | 74 | 1011.5 |
| 20260507070856 | 11 | 319 | 3.2 | 9.7 | 0.00 | 0.79 | 0.00 | 75 | 1011.5 |
| 20260507070356 | 11 | 304 | 1.6 | 4.8 | 0.00 | 0.79 | 0.00 | 76 | 1011.6 |
| 20260507065856 | 11 | 318 | 1.6 | 3.2 | 0.00 | 0.79 | 0.00 | 76 | 1011.6 |
| 20260507065356 | 11 | 312 | 1.6 | 3.2 | 0.00 | 0.79 | 0.00 | 76 | 1011.7 |
| 20260507064857 | 11 | 326 | 1.6 | 3.2 | 0.00 | 0.79 | 0.00 | 76 | 1011.6 |
| 20260507064356 | 11 | 322 | 0.0 | 3.2 | 0.00 | 0.79 | 0.00 | 76 | 1011.7 |
| 20260507063856 | 11 | 321 | 0.0 | 3.2 | 0.00 | 0.79 | 0.00 | 78 | 1011.7 |
| 20260507063356 | 11 | 347 | 0.0 | 0.0 | 0.00 | 0.79 | 0.00 | 80 | 1011.5 |
| 20260507062856 | 11 | 347 | 0.0 | 1.6 | 0.00 | 0.79 | 0.00 | 80 | 1011.6 |
| 20260507062357 | 11 | 24 | 0.0 | 0.0 | 0.00 | 0.79 | 0.00 | 79 | 1011.6 |
| 20260507061856 | 11 | 24 | 0.0 | 0.0 | 0.00 | 0.79 | 0.00 | 79 | 1011.7 |
| 20260507061356 | 11 | 23 | 0.0 | 0.0 | 0.00 | 0.79 | 0.00 | 78 | 1011.7 |
| 20260507060856 | 11 | 23 | 0.0 | 1.6 | 0.00 | 0.79 | 0.00 | 78 | 1011.7 |
| 20260507060356 | 11 | 24 | 0.0 | 3.2 | 0.00 | 0.79 | 0.00 | 78 | 1011.6 |
| 20260507055856 | 11 | 49 | 0.0 | 0.0 | 0.00 | 0.79 | 0.00 | 80 | 1011.7 |
| 20260507055357 | 11 | 49 | 0.0 | 0.0 | 0.00 | 0.79 | 0.00 | 78 | 1011.7 |
| 20260507054856 | 11 | 49 | 0.0 | 0.0 | 0.00 | 0.79 | 0.00 | 78 | 1011.7 |
| 20260507054440 | 11 | 49 | 0.0 | 0.0 | 0.00 | 0.79 | 0.00 | 78 | 1011.5 |
| 20260507054356 | 11 | 49 | 0.0 | 0.0 | 0.00 | 0.79 | 0.00 | 78 | 1011.5 |
| 20260507053858 | 11 | 49 | 0.0 | 0.0 | 0.00 | 0.79 | 0.00 | 78 | 1011.5 |
| 20260507053356 | 12 | 28 | 0.0 | 0.0 | 0.00 | 0.79 | 0.00 | 75 | 1011.4 |
| 20260507052930 | 12 | 28 | 0.0 | 0.0 | 0.00 | 0.79 | 0.00 | 75 | 1011.3 |
| 20260507052856 | 12 | 28 | 0.0 | 0.0 | 0.00 | 0.79 | 0.00 | 75 | 1011.3 |
| 20260507052427 | 12 | 27 | 0.0 | 1.6 | 0.00 | 0.79 | 0.00 | 74 | 1011.3 |
| 20260507052356 | 12 | 27 | 0.0 | 1.6 | 0.00 | 0.79 | 0.00 | 74 | 1011.3 |
| 20260507052004 | 12 | 350 | 0.0 | 3.2 | 0.00 | 0.79 | 0.00 | 74 | 1011.2 |
| 20260507051856 | 12 | 350 | 0.0 | 3.2 | 0.00 | 0.79 | 0.00 | 74 | 1011.2 |
| 20260507051712 | 12 | 19 | 0.0 | 3.2 | 0.00 | 0.79 | 0.00 | 75 | 1011.2 |
| 20260507051356 | 12 | 19 | 0.0 | 3.2 | 0.00 | 0.79 | 0.00 | 75 | 1011.2 |
| 20260507050856 | 12 | 333 | 1.6 | 3.2 | 0.00 | 0.79 | 0.00 | 74 | 1011.4 |
| 20260507050357 | 12 | 328 | 1.6 | 6.4 | 0.00 | 0.79 | 0.00 | 72 | 1011.5 |
| 20260507045856 | 12 | 325 | 1.6 | 6.4 | 0.00 | 0.79 | 0.00 | 73 | 1011.3 |
| 20260507045403 | 12 | 327 | 1.6 | 6.4 | 0.00 | 0.79 | 0.00 | 73 | 1011.2 |
| 20260507045019 | 12 | 341 | 1.6 | 4.8 | 0.00 | 0.79 | 0.00 | 73 | 1011.2 |
| 20260507044856 | 12 | 341 | 1.6 | 4.8 | 0.00 | 0.79 | 0.00 | 73 | 1011.2 |
| 20260507044356 | 12 | 325 | 1.6 | 4.8 | 0.00 | 0.79 | 0.00 | 73 | 1011.4 |
| 20260507043858 | 12 | 311 | 3.2 | 4.8 | 0.00 | 0.79 | 0.00 | 73 | 1011.5 |
| 20260507043356 | 12 | 322 | 3.2 | 6.4 | 0.00 | 0.79 | 0.00 | 73 | 1011.4 |
| 20260507042859 | 12 | 309 | 1.6 | 6.4 | 0.00 | 0.79 | 0.00 | 73 | 1011.3 |
| 20260507042500 | 12 | 317 | 0.0 | 1.6 | 0.00 | 0.79 | 0.00 | 74 | 1011.2 |
| 20260507042356 | 12 | 317 | 0.0 | 1.6 | 0.00 | 0.79 | 0.00 | 74 | 1011.2 |
| 20260507041856 | 12 | 103 | 0.0 | 1.6 | 0.00 | 0.79 | 0.00 | 74 | 1011.1 |
| 20260507041356 | 12 | 103 | 0.0 | 0.0 | 0.00 | 0.79 | 0.00 | 75 | 1011.3 |
| 20260507041128 | 12 | 306 | 1.6 | 1.6 | 0.00 | 0.79 | 0.00 | 75 | 1011.6 |
| 20260507040857 | 12 | 306 | 1.6 | 1.6 | 0.00 | 0.79 | 0.00 | 75 | 1011.6 |
| 20260507040628 | 12 | 308 | 1.6 | 6.4 | 0.00 | 0.79 | 0.00 | 75 | 1011.5 |
| 20260507040357 | 12 | 308 | 1.6 | 6.4 | 0.00 | 0.79 | 0.00 | 75 | 1011.5 |
| 20260507035857 | 12 | 345 | 1.6 | 4.8 | 0.00 | 0.79 | 0.79 | 75 | 1011.3 |
| 20260507035638 | 12 | 58 | 3.2 | 4.8 | 0.00 | 0.79 | 0.79 | 76 | 1011.0 |
| 20260507035358 | 12 | 58 | 3.2 | 4.8 | 0.00 | 0.79 | 0.79 | 76 | 1011.0 |
| 20260507034857 | 12 | 59 | 1.6 | 6.4 | 0.00 | 0.79 | 0.79 | 74 | 1010.8 |
| 20260507034357 | 13 | 65 | 0.0 | 3.2 | 0.00 | 0.79 | 0.79 | 75 | 1010.9 |
| 20260507033929 | 13 | 58 | 0.0 | 0.0 | 0.00 | 0.79 | 0.79 | 75 | 1011.1 |
| 20260507033857 | 13 | 58 | 0.0 | 0.0 | 0.00 | 0.79 | 0.79 | 75 | 1011.1 |
| 20260507033437 | 13 | 58 | 1.6 | 3.2 | 0.00 | 0.79 | 0.79 | 74 | 1010.8 |
| 20260507033357 | 13 | 58 | 1.6 | 3.2 | 0.00 | 0.79 | 0.79 | 74 | 1010.8 |
| 20260507032858 | 13 | 57 | 1.6 | 3.2 | 0.00 | 0.79 | 0.79 | 74 | 1010.9 |
| 20260507032357 | 13 | 5 | 1.6 | 8.0 | 0.00 | 0.79 | 0.79 | 74 | 1011.1 |
| 20260507031857 | 13 | 315 | 3.2 | 8.0 | 0.00 | 0.79 | 0.79 | 74 | 1011.2 |
| 20260507031358 | 13 | 312 | 4.8 | 9.7 | 0.00 | 0.79 | 0.79 | 74 | 1011.2 |
| 20260507030858 | 13 | 300 | 6.4 | 6.4 | 0.00 | 0.79 | 0.79 | 75 | 1011.1 |
| 20260507030504 | 13 | 306 | 11.3 | 14.5 | 0.00 | 0.79 | 0.79 | 75 | 1011.1 |
| 20260507030357 | 13 | 306 | 11.3 | 14.5 | 0.00 | 0.79 | 0.79 | 75 | 1011.1 |
| 20260507025857 | 13 | 311 | 11.3 | 19.3 | 0.00 | 0.79 | 0.79 | 74 | 1011.1 |
| 20260507025357 | 13 | 312 | 9.7 | 17.7 | 0.00 | 0.79 | 0.79 | 74 | 1010.9 |
| 20260507024859 | 13 | 312 | 9.7 | 16.1 | 0.00 | 0.79 | 0.79 | 74 | 1010.7 |
| 20260507024507 | 13 | 294 | 11.3 | 17.7 | 0.00 | 0.79 | 0.79 | 74 | 1010.6 |
| 20260507024357 | 13 | 294 | 11.3 | 17.7 | 0.00 | 0.79 | 0.79 | 74 | 1010.6 |
| 20260507024005 | 13 | 302 | 14.5 | 20.9 | 0.00 | 0.79 | 0.79 | 74 | 1010.4 |
| 20260507023857 | 13 | 302 | 14.5 | 20.9 | 0.00 | 0.79 | 0.79 | 74 | 1010.4 |
| 20260507023357 | 13 | 309 | 16.1 | 24.1 | 0.00 | 0.79 | 0.79 | 73 | 1010.4 |
| 20260507022857 | 13 | 304 | 14.5 | 22.5 | 0.00 | 0.79 | 0.79 | 74 | 1010.5 |
| 20260507022357 | 13 | 304 | 11.3 | 22.5 | 0.00 | 0.79 | 0.79 | 74 | 1010.5 |
| 20260507021857 | 14 | 310 | 8.0 | 16.1 | 0.00 | 0.79 | 0.79 | 74 | 1010.7 |
| 20260507021404 | 14 | 322 | 4.8 | 12.9 | 0.00 | 0.79 | 0.79 | 74 | 1010.6 |
| 20260507020857 | 14 | 317 | 4.8 | 6.4 | 0.00 | 0.79 | 0.79 | 75 | 1010.8 |
| 20260507020512 | 14 | 304 | 6.4 | 16.1 | 0.00 | 0.79 | 0.79 | 74 | 1010.8 |
| 20260507020357 | 14 | 304 | 6.4 | 16.1 | 0.00 | 0.79 | 0.79 | 74 | 1010.8 |
| 20260507015857 | 14 | 318 | 4.8 | 14.5 | 0.00 | 0.79 | 0.79 | 73 | 1010.7 |
| 20260507015359 | 14 | 43 | 4.8 | 9.7 | 0.00 | 0.79 | 0.79 | 74 | 1010.6 |
| 20260507014857 | 14 | 340 | 3.2 | 12.9 | 0.00 | 0.79 | 0.79 | 75 | 1010.5 |
| 20260507014503 | 15 | 56 | 1.6 | 6.4 | 0.00 | 0.79 | 0.79 | 75 | 1010.4 |
| 20260507014357 | 15 | 56 | 1.6 | 6.4 | 0.00 | 0.79 | 0.79 | 75 | 1010.4 |
| 20260507014052 | 15 | 309 | 3.2 | 8.0 | 0.00 | 0.79 | 0.79 | 74 | 1010.5 |
| 20260507013857 | 15 | 309 | 3.2 | 8.0 | 0.00 | 0.79 | 0.79 | 74 | 1010.5 |
| 20260507013454 | 15 | 9 | 3.2 | 8.0 | 0.00 | 0.79 | 0.79 | 74 | 1010.5 |
| 20260507013357 | 15 | 9 | 3.2 | 8.0 | 0.00 | 0.79 | 0.79 | 74 | 1010.5 |
| 20260507013057 | 15 | 323 | 4.8 | 9.7 | 0.00 | 0.79 | 0.79 | 73 | 1010.3 |
| 20260507012857 | 15 | 323 | 4.8 | 9.7 | 0.00 | 0.79 | 0.79 | 73 | 1010.3 |
| 20260507012622 | 15 | 304 | 6.4 | 14.5 | 0.00 | 0.79 | 0.79 | 73 | 1010.4 |
| 20260507012358 | 15 | 304 | 6.4 | 14.5 | 0.00 | 0.79 | 0.79 | 73 | 1010.4 |
| 20260507012036 | 15 | 312 | 8.0 | 14.5 | 0.00 | 0.79 | 0.79 | 73 | 1010.0 |
| 20260507011858 | 15 | 301 | 8.0 | 14.5 | 0.00 | 0.79 | 0.79 | 72 | 1010.2 |
| 20260507011357 | 15 | 312 | 8.0 | 14.5 | 0.00 | 0.79 | 0.79 | 73 | 1010.0 |
| 20260507010857 | 15 | 301 | 9.7 | 16.1 | 0.00 | 0.79 | 0.79 | 74 | 1010.2 |
| 20260507010358 | 15 | 284 | 11.3 | 20.9 | 0.00 | 0.79 | 0.79 | 73 | 1010.4 |
| 20260507005859 | 15 | 309 | 9.7 | 17.7 | 0.00 | 0.79 | 0.79 | 73 | 1010.3 |
| 20260507005357 | 16 | 288 | 11.3 | 19.3 | 0.00 | 0.79 | 0.79 | 73 | 1010.3 |
| 20260507005305 | 16 | 311 | 11.3 | 20.9 | 0.00 | 0.79 | 0.79 | 73 | 1010.2 |
| 20260507004857 | 16 | 311 | 11.3 | 20.9 | 0.00 | 0.79 | 0.79 | 73 | 1010.2 |
| 20260507004442 | 16 | 297 | 11.3 | 17.7 | 0.00 | 0.79 | 0.79 | 73 | 1010.2 |
| 20260507004357 | 16 | 297 | 11.3 | 17.7 | 0.00 | 0.79 | 0.79 | 73 | 1010.2 |
| 20260507003857 | 16 | 290 | 14.5 | 19.3 | 0.00 | 0.79 | 0.79 | 72 | 1010.2 |
| 20260507003357 | 16 | 305 | 12.9 | 22.5 | 0.00 | 0.79 | 0.79 | 73 | 1010.2 |
| 20260507002857 | 16 | 321 | 9.7 | 19.3 | 0.00 | 0.79 | 0.79 | 73 | 1010.1 |
| 20260507002830 | 16 | 315 | 6.4 | 14.5 | 0.00 | 0.79 | 0.79 | 76 | 1009.9 |
| 20260507002358 | 16 | 320 | 6.4 | 14.5 | 0.00 | 0.79 | 0.79 | 74 | 1009.9 |
| 20260507001857 | 16 | 315 | 6.4 | 14.5 | 0.00 | 0.79 | 0.79 | 76 | 1009.9 |
| 20260507001504 | 16 | 299 | 6.4 | 11.3 | 0.00 | 0.79 | 0.79 | 77 | 1009.7 |
| 20260507001414 | 16 | 306 | 3.2 | 8.0 | 0.00 | 0.79 | 0.79 | 77 | 1009.8 |
| 20260507001357 | 16 | 299 | 6.4 | 11.3 | 0.00 | 0.79 | 0.79 | 77 | 1009.7 |
| 20260507000857 | 16 | 306 | 3.2 | 8.0 | 0.00 | 0.79 | 0.79 | 77 | 1009.8 |
| 20260507000507 | 16 | 337 | 1.6 | 6.4 | 0.00 | 0.79 | 0.79 | 79 | 1009.7 |
| 20260507000358 | 16 | 337 | 1.6 | 6.4 | 0.00 | 0.79 | 0.79 | 79 | 1009.7 |
| 20260506235956 | 16 | 242 | 0.0 | 1.6 | 0.00 | 0.79 | 0.79 | 80 | 1009.7 |
| 20260506235857 | 16 | 242 | 0.0 | 1.6 | 0.00 | 0.79 | 0.79 | 80 | 1009.7 |
| 20260506235605 | 16 | 244 | 0.0 | 3.2 | 0.00 | 0.79 | 0.79 | 80 | 1009.6 |
| 20260506235504 | 16 | 244 | 0.0 | 3.2 | 0.00 | 0.79 | 0.79 | 80 | 1009.6 |
| 20260506235357 | 16 | 244 | 0.0 | 3.2 | 0.00 | 0.79 | 0.79 | 80 | 1009.6 |
| 20260506234944 | 17 | 289 | 0.0 | 0.0 | 0.00 | 0.79 | 0.79 | 78 | 1009.2 |
| 20260506234858 | 17 | 289 | 0.0 | 0.0 | 0.00 | 0.79 | 0.79 | 78 | 1009.2 |
| 20260506234359 | 17 | 289 | 1.6 | 3.2 | 0.00 | 0.79 | 0.79 | 78 | 1008.7 |
| 20260506233857 | 17 | 273 | 3.2 | 6.4 | 0.00 | 0.79 | 0.79 | 77 | 1008.8 |
| 20260506233357 | 17 | 261 | 1.6 | 3.2 | 0.00 | 0.79 | 0.79 | 79 | 1008.9 |
| 20260506232857 | 17 | 243 | 3.2 | 4.8 | 0.00 | 0.79 | 0.79 | 79 | 1009.0 |
| 20260506232432 | 17 | 257 | 3.2 | 6.4 | 0.00 | 0.79 | 0.79 | 79 | 1008.9 |
| 20260506232357 | 17 | 257 | 3.2 | 6.4 | 0.00 | 0.79 | 0.79 | 79 | 1008.9 |
| 20260506231932 | 17 | 256 | 4.8 | 6.4 | 0.00 | 0.79 | 0.79 | 79 | 1008.9 |
| 20260506231858 | 17 | 256 | 4.8 | 6.4 | 0.00 | 0.79 | 0.79 | 79 | 1008.9 |
| 20260506231501 | 17 | 236 | 4.8 | 9.7 | 0.00 | 0.79 | 0.79 | 79 | 1008.7 |
| 20260506231357 | 17 | 236 | 4.8 | 9.7 | 0.00 | 0.79 | 0.79 | 79 | 1008.7 |
| 20260506230857 | 17 | 252 | 4.8 | 11.3 | 0.00 | 0.79 | 0.79 | 80 | 1008.8 |
| 20260506230435 | 17 | 245 | 3.2 | 8.0 | 0.03 | 0.79 | 0.79 | 83 | 1008.6 |
| 20260506230357 | 17 | 245 | 3.2 | 8.0 | 0.03 | 0.79 | 0.79 | 83 | 1008.6 |
| 20260506225857 | 17 | 267 | 3.2 | 8.0 | 0.03 | 0.79 | 0.79 | 83 | 1008.5 |
| 20260506225357 | 17 | 262 | 4.8 | 8.0 | 0.03 | 0.79 | 0.79 | 84 | 1008.4 |
| 20260506224857 | 17 | 277 | 3.2 | 11.3 | 0.03 | 0.79 | 0.79 | 86 | 1008.4 |
| 20260506224357 | 17 | 314 | 0.0 | 6.4 | 0.03 | 0.79 | 0.79 | 85 | 1008.5 |
| 20260506223925 | 17 | 166 | 1.6 | 3.2 | 0.03 | 0.79 | 0.79 | 85 | 1008.4 |
| 20260506223858 | 17 | 150 | 0.0 | 1.6 | 0.03 | 0.79 | 0.79 | 85 | 1008.3 |
| 20260506223357 | 17 | 166 | 1.6 | 3.2 | 0.03 | 0.79 | 0.79 | 85 | 1008.4 |
| 20260506222857 | 17 | 159 | 1.6 | 4.8 | 0.03 | 0.79 | 0.79 | 84 | 1008.4 |
| 20260506222405 | 17 | 183 | 3.2 | 8.0 | 0.03 | 0.79 | 0.79 | 84 | 1008.2 |
| 20260506221857 | 17 | 165 | 4.8 | 9.7 | 0.03 | 0.79 | 0.79 | 83 | 1008.3 |
| 20260506221626 | 17 | 156 | 6.4 | 11.3 | 0.03 | 0.79 | 0.79 | 83 | 1008.2 |
| 20260506221357 | 17 | 156 | 6.4 | 11.3 | 0.03 | 0.79 | 0.79 | 83 | 1008.2 |
| 20260506220857 | 17 | 240 | 4.8 | 19.3 | 0.03 | 0.79 | 0.79 | 82 | 1008.3 |
| 20260506220358 | 18 | 219 | 4.8 | 12.9 | 0.00 | 0.76 | 0.76 | 81 | 1008.2 |
| 20260506215857 | 18 | 236 | 6.4 | 9.7 | 0.00 | 0.76 | 0.76 | 81 | 1008.2 |
| 20260506215449 | 18 | 232 | 4.8 | 9.7 | 0.00 | 0.76 | 0.76 | 80 | 1008.0 |
| 20260506215357 | 18 | 167 | 6.4 | 14.5 | 0.00 | 0.76 | 0.76 | 80 | 1008.1 |
| 20260506214857 | 18 | 232 | 4.8 | 9.7 | 0.00 | 0.76 | 0.76 | 80 | 1008.0 |
| 20260506214357 | 18 | 237 | 6.4 | 11.3 | 0.00 | 0.76 | 0.76 | 80 | 1008.0 |
| 20260506213859 | 18 | 186 | 6.4 | 14.5 | 0.00 | 0.76 | 0.76 | 79 | 1008.0 |
| 20260506213357 | 18 | 187 | 6.4 | 16.1 | 0.00 | 0.76 | 0.76 | 80 | 1007.9 |
| 20260506212857 | 18 | 163 | 6.4 | 12.9 | 0.00 | 0.76 | 0.76 | 80 | 1007.8 |
| 20260506212357 | 18 | 174 | 6.4 | 14.5 | 0.00 | 0.76 | 0.76 | 80 | 1007.7 |
| 20260506211857 | 18 | 235 | 6.4 | 12.9 | 0.00 | 0.76 | 0.76 | 79 | 1007.6 |
| 20260506211357 | 18 | 245 | 4.8 | 16.1 | 0.00 | 0.76 | 0.76 | 79 | 1007.6 |
| 20260506210857 | 18 | 224 | 4.8 | 12.9 | 0.00 | 0.76 | 0.76 | 79 | 1007.4 |
| 20260506210359 | 18 | 165 | 8.0 | 17.7 | 0.00 | 0.76 | 0.76 | 79 | 1007.6 |
| 20260506205857 | 18 | 224 | 8.0 | 17.7 | 0.00 | 0.76 | 0.76 | 79 | 1007.5 |
| 20260506205400 | 18 | 161 | 4.8 | 17.7 | 0.00 | 0.76 | 0.76 | 79 | 1007.4 |
| 20260506204901 | 18 | 175 | 4.8 | 11.3 | 0.00 | 0.76 | 0.76 | 79 | 1007.5 |
| 20260506204357 | 18 | 221 | 6.4 | 11.3 | 0.00 | 0.76 | 0.76 | 79 | 1007.4 |
| 20260506204304 | 18 | 184 | 4.8 | 16.1 | 0.00 | 0.76 | 0.76 | 79 | 1007.3 |
| 20260506203858 | 18 | 184 | 4.8 | 16.1 | 0.00 | 0.76 | 0.76 | 79 | 1007.3 |
| 20260506203357 | 18 | 154 | 3.2 | 11.3 | 0.00 | 0.76 | 0.76 | 80 | 1007.3 |
| 20260506202859 | 18 | 178 | 4.8 | 3.2 | 0.00 | 0.76 | 0.76 | 80 | 1007.4 |
| 20260506202857 | 18 | 178 | 3.2 | 11.3 | 0.00 | 0.76 | 0.76 | 80 | 1007.3 |
| 20260506202357 | 18 | 178 | 4.8 | 3.2 | 0.00 | 0.76 | 0.76 | 80 | 1007.4 |
| 20260506201857 | 18 | 161 | 3.2 | 12.9 | 0.00 | 0.76 | 0.76 | 80 | 1007.5 |
| 20260506201357 | 18 | 257 | 3.2 | 9.7 | 0.00 | 0.76 | 0.76 | 81 | 1007.5 |
| 20260506200943 | 18 | 181 | 4.8 | 11.3 | 0.00 | 0.76 | 0.76 | 80 | 1007.5 |
| 20260506200858 | 18 | 181 | 4.8 | 11.3 | 0.00 | 0.76 | 0.76 | 80 | 1007.5 |
| 20260506200357 | 18 | 184 | 4.8 | 11.3 | 0.00 | 0.76 | 0.76 | 80 | 1007.5 |
| 20260506195858 | 18 | 187 | 4.8 | 11.3 | 0.00 | 0.76 | 0.76 | 79 | 1007.5 |
| 20260506195400 | 18 | 225 | 4.8 | 11.3 | 0.00 | 0.76 | 0.76 | 79 | 1007.6 |
| 20260506194858 | 18 | 209 | 6.4 | 9.7 | 0.00 | 0.76 | 0.76 | 79 | 1007.6 |
| 20260506194707 | 18 | 220 | 6.4 | 16.1 | 0.00 | 0.76 | 0.76 | 79 | 1007.5 |
| 20260506194358 | 18 | 220 | 6.4 | 16.1 | 0.00 | 0.76 | 0.76 | 79 | 1007.5 |
| 20260506193859 | 18 | 164 | 8.0 | 14.5 | 0.00 | 0.76 | 0.76 | 79 | 1007.6 |
| 20260506193358 | 18 | 202 | 6.4 | 16.1 | 0.00 | 0.76 | 0.76 | 79 | 1007.5 |
| 20260506192930 | 18 | 234 | 4.8 | 16.1 | 0.00 | 0.76 | 0.76 | 80 | 1007.5 |
| 20260506192858 | 18 | 234 | 4.8 | 16.1 | 0.00 | 0.76 | 0.76 | 80 | 1007.5 |
| 20260506192651 | 18 | 140 | 6.4 | 17.7 | 0.00 | 0.76 | 0.76 | 82 | 1007.5 |
| 20260506192358 | 18 | 232 | 6.4 | 9.7 | 0.00 | 0.76 | 0.76 | 82 | 1007.4 |
| 20260506192247 | 18 | 140 | 6.4 | 17.7 | 0.00 | 0.76 | 0.76 | 82 | 1007.5 |
| 20260506191859 | 18 | 140 | 6.4 | 17.7 | 0.00 | 0.76 | 0.76 | 82 | 1007.5 |
| 20260506191435 | 17 | 189 | 6.4 | 12.9 | 0.00 | 0.76 | 0.76 | 83 | 1007.6 |
| 20260506191358 | 17 | 189 | 6.4 | 12.9 | 0.00 | 0.76 | 0.76 | 83 | 1007.6 |
| 20260506190858 | 17 | 171 | 4.8 | 12.9 | 0.00 | 0.76 | 0.76 | 83 | 1007.6 |
| 20260506190603 | 17 | 187 | 4.8 | 9.7 | 0.00 | 0.76 | 0.76 | 84 | 1007.7 |
| 20260506190359 | 17 | 187 | 4.8 | 9.7 | 0.00 | 0.76 | 0.76 | 84 | 1007.7 |
| 20260506185858 | 17 | 148 | 4.8 | 12.9 | 0.00 | 0.76 | 0.76 | 84 | 1007.7 |
| 20260506185438 | 17 | 182 | 4.8 | 12.9 | 0.00 | 0.76 | 0.76 | 83 | 1007.7 |
| 20260506185359 | 17 | 182 | 4.8 | 12.9 | 0.00 | 0.76 | 0.76 | 83 | 1007.7 |
| 20260506184858 | 17 | 169 | 4.8 | 9.7 | 0.00 | 0.76 | 0.76 | 83 | 1007.8 |
| 20260506184358 | 17 | 263 | 4.8 | 14.5 | 0.00 | 0.76 | 0.76 | 82 | 1007.7 |
| 20260506184106 | 17 | 217 | 3.2 | 12.9 | 0.00 | 0.76 | 0.76 | 82 | 1007.8 |
| 20260506183858 | 17 | 217 | 3.2 | 12.9 | 0.00 | 0.76 | 0.76 | 82 | 1007.8 |
| 20260506183559 | 17 | 211 | 4.8 | 11.3 | 0.00 | 0.76 | 0.76 | 82 | 1007.8 |
| 20260506183358 | 17 | 211 | 4.8 | 11.3 | 0.00 | 0.76 | 0.76 | 82 | 1007.8 |
| 20260506182858 | 17 | 194 | 3.2 | 11.3 | 0.00 | 0.76 | 0.76 | 82 | 1007.8 |
| 20260506182358 | 17 | 211 | 1.6 | 8.0 | 0.00 | 0.76 | 0.76 | 82 | 1007.8 |
| 20260506182146 | 17 | 211 | 0.0 | 6.4 | 0.00 | 0.76 | 0.76 | 83 | 1007.9 |
| 20260506181858 | 17 | 211 | 0.0 | 6.4 | 0.00 | 0.76 | 0.76 | 83 | 1007.9 |
| 20260506181717 | 17 | 221 | 1.6 | 4.8 | 0.00 | 0.76 | 0.76 | 83 | 1007.8 |
| 20260506181358 | 17 | 221 | 1.6 | 4.8 | 0.00 | 0.76 | 0.76 | 83 | 1007.8 |
| 20260506181304 | 17 | 143 | 1.6 | 3.2 | 0.00 | 0.76 | 0.76 | 83 | 1007.8 |
| 20260506180858 | 17 | 143 | 1.6 | 3.2 | 0.00 | 0.76 | 0.76 | 83 | 1007.8 |
| 20260506180554 | 17 | 257 | 3.2 | 4.8 | 0.00 | 0.76 | 0.76 | 83 | 1007.8 |
| 20260506180358 | 17 | 257 | 3.2 | 4.8 | 0.00 | 0.76 | 0.76 | 83 | 1007.8 |
| 20260506175858 | 17 | 111 | 3.2 | 9.7 | 0.00 | 0.76 | 0.76 | 83 | 1007.7 |
| 20260506175400 | 16 | 187 | 3.2 | 9.7 | 0.00 | 0.76 | 0.76 | 83 | 1007.8 |
| 20260506175222 | 16 | 182 | 3.2 | 6.4 | 0.00 | 0.76 | 0.76 | 83 | 1007.8 |
| 20260506174858 | 16 | 182 | 3.2 | 6.4 | 0.00 | 0.76 | 0.76 | 83 | 1007.8 |
| 20260506174358 | 16 | 234 | 3.2 | 9.7 | 0.00 | 0.76 | 0.76 | 83 | 1007.9 |
| 20260506173858 | 16 | 248 | 4.8 | 11.3 | 0.00 | 0.76 | 0.76 | 83 | 1007.9 |
| 20260506173530 | 16 | 177 | 4.8 | 11.3 | 0.00 | 0.76 | 0.76 | 83 | 1007.8 |
| 20260506173358 | 16 | 177 | 4.8 | 11.3 | 0.00 | 0.76 | 0.76 | 83 | 1007.8 |
| 20260506172911 | 16 | 188 | 6.4 | 14.5 | 0.00 | 0.76 | 0.76 | 83 | 1007.8 |
| 20260506172858 | 16 | 211 | 6.4 | 14.5 | 0.00 | 0.76 | 0.76 | 83 | 1007.9 |
| 20260506172359 | 16 | 188 | 6.4 | 14.5 | 0.00 | 0.76 | 0.76 | 83 | 1007.8 |
| 20260506171858 | 16 | 187 | 6.4 | 16.1 | 0.00 | 0.76 | 0.76 | 83 | 1007.9 |
| 20260506171358 | 16 | 150 | 8.0 | 17.7 | 0.00 | 0.76 | 0.76 | 83 | 1007.8 |
| 20260506170859 | 16 | 195 | 6.4 | 16.1 | 0.00 | 0.76 | 0.76 | 84 | 1007.8 |
| 20260506170400 | 16 | 209 | 9.7 | 22.5 | 0.00 | 0.76 | 0.76 | 84 | 1007.9 |
| 20260506165858 | 16 | 176 | 8.0 | 19.3 | 0.00 | 0.76 | 0.76 | 84 | 1007.8 |
| 20260506165359 | 16 | 200 | 8.0 | 16.1 | 0.00 | 0.76 | 0.76 | 84 | 1007.9 |
| 20260506164858 | 16 | 156 | 9.7 | 17.7 | 0.00 | 0.76 | 0.76 | 84 | 1007.9 |
| 20260506164358 | 16 | 150 | 9.7 | 17.7 | 0.00 | 0.76 | 0.76 | 84 | 1007.8 |
| 20260506163858 | 16 | 207 | 11.3 | 24.1 | 0.00 | 0.76 | 0.76 | 85 | 1007.9 |
| 20260506163358 | 16 | 214 | 11.3 | 24.1 | 0.00 | 0.76 | 0.76 | 85 | 1008.0 |
| 20260506162858 | 16 | 182 | 9.7 | 24.1 | 0.00 | 0.76 | 0.76 | 84 | 1007.9 |
| 20260506162358 | 16 | 206 | 8.0 | 22.5 | 0.00 | 0.76 | 0.76 | 85 | 1008.0 |
| 20260506162133 | 15 | 138 | 8.0 | 20.9 | 0.00 | 0.76 | 0.76 | 85 | 1007.9 |
| 20260506161858 | 16 | 203 | 8.0 | 22.5 | 0.00 | 0.76 | 0.76 | 85 | 1007.7 |
| 20260506161358 | 15 | 180 | 9.7 | 14.5 | 0.00 | 0.76 | 0.76 | 85 | 1007.8 |
| 20260506160858 | 15 | 138 | 8.0 | 20.9 | 0.00 | 0.76 | 0.76 | 85 | 1007.9 |
| 20260506160632 | 15 | 154 | 9.7 | 25.7 | 0.03 | 0.76 | 0.76 | 85 | 1008.1 |
| 20260506160431 | 15 | 239 | 8.0 | 20.9 | 0.00 | 0.76 | 0.76 | 86 | 1008.0 |
| 20260506160358 | 15 | 239 | 8.0 | 20.9 | 0.00 | 0.76 | 0.76 | 86 | 1008.0 |
| 20260506155858 | 15 | 168 | 9.7 | 20.9 | 0.00 | 0.76 | 0.76 | 85 | 1008.0 |
| 20260506155358 | 15 | 154 | 9.7 | 25.7 | 0.03 | 0.76 | 0.76 | 85 | 1008.1 |
| 20260506154858 | 15 | 146 | 11.3 | 24.1 | 0.03 | 0.76 | 0.76 | 85 | 1008.1 |
| 20260506154358 | 16 | 165 | 11.3 | 24.1 | 0.03 | 0.76 | 0.76 | 85 | 1008.1 |
| 20260506153858 | 16 | 169 | 9.7 | 29.0 | 0.05 | 0.76 | 0.76 | 85 | 1007.9 |
| 20260506153358 | 16 | 219 | 8.0 | 22.5 | 0.05 | 0.76 | 0.76 | 85 | 1008.0 |
| 20260506152858 | 16 | 189 | 9.7 | 25.7 | 0.08 | 0.76 | 0.76 | 86 | 1008.0 |
| 20260506152401 | 16 | 177 | 11.3 | 25.7 | 0.13 | 0.76 | 0.76 | 86 | 1007.9 |
| 20260506152141 | 16 | 276 | 11.3 | 24.1 | 0.18 | 0.76 | 0.76 | 86 | 1007.9 |
| 20260506151858 | 16 | 276 | 11.3 | 24.1 | 0.18 | 0.76 | 0.76 | 86 | 1007.9 |
| 20260506151603 | 15 | 198 | 11.3 | 29.0 | 0.20 | 0.76 | 0.76 | 86 | 1007.8 |
| 20260506151358 | 15 | 198 | 11.3 | 29.0 | 0.20 | 0.76 | 0.76 | 86 | 1007.8 |
| 20260506150858 | 15 | 226 | 9.7 | 20.9 | 0.33 | 0.76 | 0.76 | 87 | 1007.9 |
| 20260506150358 | 15 | 180 | 9.7 | 17.7 | 0.36 | 0.76 | 0.76 | 87 | 1007.7 |
| 20260506145858 | 15 | 167 | 8.0 | 32.2 | 0.36 | 0.76 | 0.76 | 87 | 1007.7 |
| 20260506145358 | 15 | 140 | 8.0 | 16.1 | 0.36 | 0.74 | 0.74 | 87 | 1007.7 |
| 20260506145013 | 15 | 153 | 4.8 | 17.7 | 0.38 | 0.74 | 0.74 | 87 | 1008.0 |
| 20260506144858 | 15 | 153 | 4.8 | 17.7 | 0.38 | 0.74 | 0.74 | 87 | 1008.0 |
| 20260506144358 | 15 | 189 | 4.8 | 19.3 | 0.38 | 0.74 | 0.74 | 88 | 1008.1 |
| 20260506144014 | 15 | 180 | 4.8 | 12.9 | 0.36 | 0.71 | 0.71 | 88 | 1008.4 |
| 20260506143900 | 15 | 180 | 4.8 | 12.9 | 0.36 | 0.71 | 0.71 | 88 | 1008.4 |
| 20260506143358 | 15 | 179 | 6.4 | 17.7 | 0.33 | 0.69 | 0.69 | 88 | 1008.7 |
| 20260506142901 | 15 | 217 | 6.4 | 14.5 | 0.33 | 0.69 | 0.69 | 87 | 1009.0 |
| 20260506142400 | 15 | 211 | 8.0 | 19.3 | 0.30 | 0.64 | 0.64 | 87 | 1009.0 |
| 20260506142005 | 15 | 227 | 9.7 | 19.3 | 0.25 | 0.58 | 0.58 | 87 | 1009.0 |
| 20260506141859 | 15 | 227 | 9.7 | 19.3 | 0.25 | 0.58 | 0.58 | 87 | 1009.0 |
| 20260506141455 | 15 | 171 | 9.7 | 20.9 | 0.20 | 0.51 | 0.51 | 87 | 1008.7 |
| 20260506141358 | 15 | 171 | 9.7 | 20.9 | 0.20 | 0.51 | 0.51 | 87 | 1008.7 |
| 20260506141254 | 15 | 160 | 11.3 | 22.5 | 0.15 | 0.41 | 0.41 | 86 | 1008.5 |